Flight Track Log - Related Links

Times and Time Zones

All times are in EDT time to prevent confusion due to time zone crossing. See the N27XP flight status page for this flight to view local times or setup timezone preferences in your user account.

Time Position Orientation Groundspeed Altitude Reporting Facility
EDT Latitude Longitude Course Direction KTS MPH feet Rate Location/Type
Sun 04:02:25 PM 40.8333 -74.1167 157° South 164 189 1,500  Level New York TRACON
Sun 04:03:25 PM 40.8167 -74.2000 255° West 231 266 3,800 2,500 Climbing New York TRACON
Sun 04:04:25 PM 40.8000 -74.2833 255° West 262 302 6,500 2,714 Climbing New York TRACON
Sun 04:05:31 PM 40.7167 -74.3167 197° South 284 327 9,500 2,286 Climbing New York TRACON
Sun 04:06:31 PM 40.6333 -74.2833 163° South 314 361 11,300 1,693 Climbing New York TRACON
Sun 04:07:00 PM 40.4213 -74.2081 157° South  Level FlightAware Approximate
Sun 04:08:53 PM 40.4289 -74.3944 202° Southwest 345 397 15,200  Level New York Center
Sun 04:09:53 PM 40.3439 -74.4500 206° Southwest 369 425 16,500 1,400 Climbing New York Center
Sun 04:10:53 PM 40.2378 -74.5122 204° Southwest 383 441 18,000 1,190 Climbing New York Center
Sun 04:11:54 PM 40.1381 -74.5639 202° Southwest 388 447 18,900 942 Climbing New York Center
Sun 04:12:54 PM 40.0358 -74.6314 207° Southwest 399 459 19,900 942 Climbing New York Center
Sun 04:13:55 PM 39.9356 -74.6964 206° Southwest 405 466 20,800 633 Climbing New York Center
Sun 04:16:13 PM 39.7069 -74.8497 207° Southwest 399 459 22,000 364 Climbing Washington Center
Sun 04:17:13 PM 39.6117 -74.9072 205° Southwest 404 465 22,000  Level Washington Center
Sun 04:18:12 PM 39.5097 -74.9756 207° Southwest 409 471 22,000  Level Washington Center
Sun 04:19:12 PM 39.4039 -75.0436 206° Southwest 409 471 22,000  Level Washington Center
Sun 04:20:13 PM 39.3061 -75.1142 209° Southwest 409 471 22,000  Level Washington Center
Sun 04:21:14 PM 39.2128 -75.2192 221° Southwest 404 465 22,000  Level Washington Center
Sun 04:22:14 PM 39.1361 -75.3214 226° Southwest 404 465 22,000  Level Washington Center
Sun 04:23:12 PM 39.0569 -75.4258 226° Southwest 404 465 22,000  Level Washington Center
Sun 04:24:13 PM 38.9778 -75.5275 225° Southwest 404 465 22,000 -50 Level Washington Center
Sun 04:25:13 PM 38.9028 -75.6289 226° Southwest 404 465 21,900  Descending Washington Center
Sun 04:26:14 PM 38.8528 -75.7517 242° Southwest 393 452 22,000 50 Climbing Washington Center
Sun 04:27:12 PM 38.8108 -75.8794 247° West 393 452 22,000  Level Washington Center
Sun 04:28:13 PM 38.7397 -75.9883 230° Southwest 398 458 22,000  Level Washington Center
Sun 04:29:13 PM 38.6456 -76.0728 215° Southwest 398 458 22,000  Level Washington Center
Sun 04:30:12 PM 38.5492 -76.1517 213° Southwest 413 475 22,000  Level Washington Center
Sun 04:31:12 PM 38.4550 -76.2414 217° Southwest 427 491 22,000  Level Washington Center
Sun 04:32:13 PM 38.3586 -76.3225 213° Southwest 427 491 22,000  Level Washington Center
Sun 04:33:14 PM 38.2622 -76.3931 210° Southwest 419 482 22,000  Level Washington Center
Sun 04:34:12 PM 38.1681 -76.4658 211° Southwest 412 474 22,000  Level Washington Center
Sun 04:35:13 PM 38.0714 -76.5414 212° Southwest 412 474 22,000  Level Washington Center
Sun 04:36:13 PM 37.9750 -76.6164 212° Southwest 412 474 22,000  Level Washington Center
Sun 04:37:13 PM 37.8803 -76.6889 211° Southwest 406 467 22,000  Level Washington Center
Sun 04:38:14 PM 37.7858 -76.7636 212° Southwest 406 467 22,000  Level Washington Center
Sun 04:39:12 PM 37.6892 -76.8358 211° Southwest 412 474 22,000  Level Washington Center
Sun 04:40:12 PM 37.5925 -76.9100 211° Southwest 406 467 22,000  Level Washington Center
Sun 04:41:13 PM 37.5103 -76.9767 213° Southwest 406 467 22,000  Level Washington Center
Sun 04:42:13 PM 37.3989 -77.0583 210° Southwest 412 474 22,000  Level Washington Center
Sun 04:43:14 PM 37.3125 -77.1272 212° Southwest 407 468 22,000 -446 Level Washington Center
Sun 04:44:14 PM 37.2214 -77.2219 220° Southwest 407 468 21,100 -864 Descending Washington Center
Sun 04:45:12 PM 37.1431 -77.3089 222° Southwest 400 460 20,300 -800 Descending Washington Center
Sun 04:46:14 PM 37.0625 -77.3981 221° Southwest 386 444 19,500 -787 Descending Washington Center
Sun 04:47:14 PM 36.9819 -77.4872 221° Southwest 386 444 18,700 -661 Descending Washington Center
Sun 04:48:12 PM 36.9033 -77.5764 222° Southwest 391 450 18,200 -356 Descending Washington Center
Sun 04:49:12 PM 36.8286 -77.6653 224° Southwest 391 450 18,000 -99 Descending Washington Center
Sun 04:50:13 PM 36.7542 -77.7539 224° Southwest 379 436 18,000  Level Washington Center
Sun 04:51:13 PM 36.6794 -77.8425 224° Southwest 379 436 18,000  Level Washington Center
Sun 04:52:14 PM 36.6069 -77.9258 223° Southwest 374 430 18,000  Level Washington Center
Sun 04:53:14 PM 36.5344 -78.0089 223° Southwest 368 423 18,000 -54 Level Washington Center
Sun 04:54:06 PM 36.4725 -78.0819 223° Southwest 360 414 17,900 -293 Descending Washington Center
Sun 04:54:36 PM 36.4317 -78.1322 225° Southwest 363 418 17,600 -1,000 Descending Washington Center
Sun 04:55:12 PM 36.3953 -78.1750 223° Southwest 368 423 16,800 -1,455 Descending Washington Center
Sun 04:55:42 PM 36.3525 -78.2250 223° Southwest 369 425 16,000 -1,672 Descending Washington Center
Sun 04:56:13 PM 36.3158 -78.2728 226° Southwest 362 417 15,100 -1,701 Descending Washington Center
Sun 04:56:49 PM 36.2711 -78.3203 221° Southwest 353 406 14,100 -1,400 Descending Washington Center
Sun 04:57:13 PM 36.2517 -78.3453 226° Southwest 352 405 13,700 -985 Descending Washington Center
Sun 04:57:56 PM 36.1961 -78.4078 222° Southwest 341 392 13,000 -689 Descending Washington Center
Sun 04:58:14 PM 36.1767 -78.4328 226° Southwest 346 398 13,000  Level Washington Center
Sun 04:58:48 PM 36.1358 -78.4775 221° Southwest 326 375 13,000  Level Washington Center
Sun 04:59:12 PM 36.1186 -78.5000 227° Southwest 334 384 13,000  Level Washington Center
Sun 04:59:43 PM 36.0758 -78.5475 222° Southwest 319 367 13,000  Level Washington Center
Sun 05:00:13 PM 36.0522 -78.5772 226° Southwest 328 377 13,000  Level Washington Center
Sun 05:00:50 PM 36.0069 -78.6269 222° Southwest 316 364 13,000  Level Washington Center
Sun 05:01:14 PM 35.9875 -78.6519 226° Southwest 328 377 13,000 -111 Level Washington Center
Sun 05:01:44 PM 35.9469 -78.6939 220° Southwest 314 361 12,900 -414 Descending Washington Center
Sun 05:02:12 PM 35.9253 -78.7264 231° Southwest 328 377 12,600 -885 Descending Washington Center
Sun 05:02:45 PM 35.8822 -78.7708 220° Southwest 319 367 12,000 -885 Descending Washington Center
Sun 05:03:13 PM 35.8583 -78.8033 228° Southwest 328 377 11,700 -896 Descending Washington Center
Sun 05:03:52 PM 35.7967 -78.8544 214° Southwest 338 389 11,000 -960 Descending Washington Center
Sun 05:04:53 PM 35.7300 -78.9183 218° Southwest 296 341 10,100 -885 Descending Washington Center
Sun 05:06:00 PM 35.6362 -78.9972 219° Southwest  Level FlightAware Approximate
Sun 05:13:00 PM 35.2333 -79.3833 219° Southwest  Level FlightAware Approximate
Sun 05:14:00 PM 35.2380 -79.3883 219° Southwest  Level Estimated
Sun 05:15:00 PM 35.2333 -79.3833 219° Southwest  Level FlightAware Approximate

Login

Don't have an account? Register now (free) for customized features, flight alerts, and more!